| time (UTC) | temp F | wind direction | speed knots | gust knots | rain 1hr in | rain 24hr in | rain mn in | humidity % | barometer mb |
| 20260506024550 | 70 | 134 | 1.7 | 7.0 | 0.00 | 0.00 | 0.00 | 43 | 1008.9 |
| 20260506023051 | 70 | 138 | 0.0 | 6.1 | 0.00 | 0.00 | 0.00 | 43 | 1009.0 |
| 20260506021554 | 71 | 173 | 2.6 | 7.8 | 0.00 | 0.00 | 0.00 | 42 | 1009.0 |
| 20260506020049 | 71 | 134 | 1.7 | 9.6 | 0.00 | 0.00 | 0.00 | 41 | 1008.9 |
| 20260506014520 | 71 | 140 | 2.6 | 7.0 | 0.00 | 0.00 | 0.00 | 40 | 1008.7 |
| 20260506013025 | 71 | 198 | 2.6 | 7.0 | 0.00 | 0.00 | 0.00 | 39 | 1008.8 |
| 20260506011618 | 71 | 142 | 0.9 | 7.0 | 0.00 | 0.00 | 0.00 | 39 | 1008.6 |
| 20260506010048 | 72 | 153 | 0.9 | 7.8 | 0.00 | 0.00 | 0.00 | 38 | 1008.5 |
| 20260506004558 | 73 | 123 | 0.9 | 7.8 | 0.00 | 0.00 | 0.00 | 37 | 1008.3 |
| 20260506004556 | 73 | 141 | 0.9 | 7.8 | 0.00 | 0.00 | 0.00 | 37 | 1008.3 |
| 20260506003016 | 73 | 136 | 1.7 | 7.8 | 0.00 | 0.00 | 0.00 | 36 | 1008.0 |
| 20260506001515 | 74 | 196 | 0.9 | 7.0 | 0.00 | 0.00 | 0.00 | 36 | 1008.0 |
| 20260506000019 | 75 | 147 | 0.0 | 7.0 | 0.00 | 0.00 | 0.00 | 35 | 1008.0 |
| 20260505234517 | 75 | 170 | 0.9 | 8.7 | 0.00 | 0.00 | 0.00 | 34 | 1007.9 |
| 20260505233012 | 76 | 178 | 2.6 | 10.4 | 0.00 | 0.00 | 0.00 | 34 | 1007.8 |
| 20260505231512 | 76 | 167 | 2.6 | 6.1 | 0.00 | 0.00 | 0.00 | 35 | 1007.7 |
| 20260505230014 | 76 | 202 | 6.1 | 10.4 | 0.00 | 0.00 | 0.00 | 34 | 1007.6 |
| 20260505224508 | 76 | 123 | 2.6 | 8.7 | 0.00 | 0.00 | 0.00 | 35 | 1007.7 |
| 20260505223010 | 77 | 171 | 2.6 | 10.4 | 0.00 | 0.00 | 0.00 | 36 | 1007.8 |
| 20260505221508 | 77 | 134 | 3.5 | 17.4 | 0.00 | 0.00 | 0.00 | 35 | 1007.9 |
| 20260505220105 | 78 | 123 | 1.7 | 9.6 | 0.00 | 0.00 | 0.00 | 34 | 1007.8 |
| 20260505214512 | 79 | 126 | 3.5 | 14.8 | 0.00 | 0.00 | 0.00 | 33 | 1007.7 |
| 20260505213004 | 79 | 183 | 6.1 | 14.8 | 0.00 | 0.00 | 0.00 | 33 | 1007.6 |
| 20260505211504 | 80 | 264 | 2.6 | 11.3 | 0.00 | 0.00 | 0.00 | 33 | 1007.5 |
| 20260505210006 | 80 | 154 | 4.3 | 12.2 | 0.00 | 0.00 | 0.00 | 31 | 1007.5 |
| 20260505204503 | 80 | 166 | 5.2 | 13.9 | 0.00 | 0.00 | 0.00 | 33 | 1007.4 |
| 20260505203101 | 80 | 165 | 5.2 | 14.8 | 0.00 | 0.00 | 0.00 | 33 | 1007.6 |
| 20260505201607 | 80 | 165 | 8.7 | 13.9 | 0.00 | 0.00 | 0.00 | 31 | 1007.5 |
| 20260505200056 | 80 | 163 | 3.5 | 13.9 | 0.00 | 0.00 | 0.00 | 36 | 1007.7 |
| 20260505194555 | 80 | 132 | 3.5 | 14.8 | 0.00 | 0.00 | 0.00 | 35 | 1007.8 |
| 20260505193053 | 80 | 186 | 7.0 | 13.0 | 0.00 | 0.00 | 0.00 | 34 | 1008.0 |
| 20260505191557 | 80 | 152 | 6.1 | 13.9 | 0.00 | 0.00 | 0.00 | 36 | 1008.2 |
| 20260505184559 | 80 | 135 | 0.0 | 10.4 | 0.00 | 0.00 | 0.00 | 39 | 1008.5 |
| 20260505183049 | 79 | 142 | 4.3 | 13.9 | 0.00 | 0.00 | 0.00 | 38 | 1008.7 |
| 20260505181539 | 79 | 192 | 2.6 | 9.6 | 0.00 | 0.00 | 0.00 | 39 | 1008.9 |
| 20260505180040 | 79 | 194 | 4.3 | 16.5 | 0.00 | 0.00 | 0.00 | 36 | 1009.1 |
| 20260505174539 | 78 | 142 | 6.1 | 13.0 | 0.00 | 0.00 | 0.00 | 37 | 1009.3 |
| 20260505173038 | 78 | 191 | 2.6 | 12.2 | 0.00 | 0.00 | 0.00 | 40 | 1009.4 |
| 20260505171538 | 78 | 129 | 2.6 | 13.9 | 0.00 | 0.00 | 0.00 | 41 | 1009.4 |
| 20260505170027 | 78 | 167 | 1.7 | 7.8 | 0.00 | 0.00 | 0.00 | 42 | 1009.8 |
| 20260505164534 | 78 | 169 | 0.0 | 13.0 | 0.00 | 0.00 | 0.00 | 46 | 1010.0 |
| 20260505163024 | 77 | 174 | 3.5 | 10.4 | 0.00 | 0.00 | 0.00 | 47 | 1010.1 |
| 20260505161521 | 77 | 129 | 1.7 | 9.6 | 0.00 | 0.00 | 0.00 | 43 | 1010.2 |
| 20260505153020 | 76 | 208 | 0.9 | 4.3 | 0.00 | 0.00 | 0.00 | 46 | 1010.4 |
| 20260505151511 | 76 | 163 | 0.0 | 7.0 | 0.00 | 0.00 | 0.00 | 44 | 1010.2 |
| 20260505124527 | 61 | 148 | 0.9 | 4.3 | 0.00 | 0.00 | 0.00 | 66 | 1011.3 |
| 20260505123044 | 60 | 157 | 0.0 | 2.6 | 0.00 | 0.00 | 0.00 | 70 | 1011.4 |
| 20260505121529 | 59 | 161 | 0.0 | 4.3 | 0.00 | 0.00 | 0.00 | 69 | 1011.3 |
| 20260505120122 | 58 | 152 | 0.9 | 5.2 | 0.00 | 0.00 | 0.00 | 70 | 1011.2 |
| 20260505114600 | 58 | 171 | 1.7 | 6.1 | 0.00 | 0.00 | 0.00 | 70 | 1011.0 |
| 20260505113053 | 57 | 160 | 0.0 | 5.2 | 0.00 | 0.00 | 0.00 | 71 | 1011.0 |
| 20260505111554 | 57 | 124 | 1.7 | 7.8 | 0.00 | 0.00 | 0.00 | 71 | 1010.9 |
| 20260505101538 | 56 | 148 | 0.0 | 4.3 | 0.00 | 0.00 | 0.00 | 72 | 1010.1 |
| 20260505100033 | 56 | 146 | 0.9 | 4.3 | 0.00 | 0.00 | 0.00 | 71 | 1010.1 |
| 20260505094531 | 57 | 174 | 0.9 | 5.2 | 0.00 | 0.00 | 0.00 | 71 | 1010.0 |
| 20260505093034 | 57 | 153 | 0.0 | 4.3 | 0.00 | 0.00 | 0.00 | 71 | 1010.0 |
| 20260505091533 | 57 | 174 | 0.9 | 6.1 | 0.00 | 0.00 | 0.00 | 71 | 1009.9 |
| 20260505090042 | 57 | 139 | 0.0 | 4.3 | 0.00 | 0.00 | 0.00 | 71 | 1009.8 |
| 20260505084525 | 57 | 146 | 0.0 | 2.6 | 0.00 | 0.00 | 0.00 | 71 | 1009.9 |
| 20260505083121 | 57 | 140 | 0.0 | 0.0 | 0.00 | 0.00 | 0.00 | 70 | 1009.9 |
| 20260505081524 | 58 | 140 | 0.0 | 0.9 | 0.00 | 0.00 | 0.00 | 69 | 1009.9 |
| 20260505080041 | 58 | 138 | 0.0 | 2.6 | 0.00 | 0.00 | 0.00 | 69 | 1009.9 |
| 20260505074515 | 58 | 147 | 0.0 | 0.9 | 0.00 | 0.00 | 0.00 | 69 | 1009.7 |
| 20260505073017 | 58 | 153 | 0.0 | 1.7 | 0.00 | 0.00 | 0.00 | 68 | 1009.6 |
| 20260505071514 | 59 | 153 | 0.0 | 1.7 | 0.00 | 0.00 | 0.00 | 68 | 1009.6 |
| 20260505070018 | 59 | 151 | 0.0 | 2.6 | 0.00 | 0.00 | 0.00 | 67 | 1009.6 |
| 20260505064508 | 59 | 167 | 0.0 | 4.3 | 0.00 | 0.00 | 0.00 | 66 | 1009.7 |
| 20260505063007 | 60 | 156 | 0.0 | 2.6 | 0.00 | 0.00 | 0.00 | 65 | 1009.8 |
| 20260505061509 | 60 | 153 | 0.0 | 4.3 | 0.00 | 0.00 | 0.00 | 64 | 1009.7 |
| 20260505060002 | 61 | 162 | 0.9 | 4.3 | 0.00 | 0.00 | 0.00 | 64 | 1009.7 |
| 20260505054601 | 61 | 159 | 0.0 | 4.3 | 0.00 | 0.00 | 0.00 | 63 | 1009.8 |
| 20260505053106 | 61 | 144 | 1.7 | 7.8 | 0.00 | 0.00 | 0.00 | 62 | 1009.9 |
| 20260505051556 | 62 | 150 | 1.7 | 4.3 | 0.00 | 0.00 | 0.00 | 61 | 1009.8 |
| 20260505050124 | 62 | 140 | 0.9 | 5.2 | 0.00 | 0.00 | 0.00 | 60 | 1009.9 |
| 20260505041603 | 61 | 161 | 0.9 | 5.2 | 0.00 | 0.00 | 0.00 | 60 | 1009.7 |
| 20260505040057 | 61 | 182 | 0.9 | 3.5 | 0.00 | 0.00 | 0.00 | 60 | 1009.7 |
| 20260505034550 | 61 | 167 | 0.0 | 7.0 | 0.00 | 0.00 | 0.00 | 60 | 1009.7 |
| 20260505033050 | 60 | 134 | 0.9 | 3.5 | 0.00 | 0.00 | 0.00 | 61 | 1009.6 |
| 20260505031549 | 60 | 130 | 0.0 | 1.7 | 0.00 | 0.00 | 0.00 | 59 | 1009.7 |
| 20260505030047 | 60 | 139 | 0.0 | 0.0 | 0.00 | 0.00 | 0.00 | 59 | 1009.8 |